,

(GMT )
Al Udeid

Weather History for KQIR - December, 2012

Change the Weather History Date:

Sunday, December 9, 2012

  Actual Average Record
Temperature  
Mean Temperature 74 °F -  
Max Temperature 83 °F - - ()
Min Temperature 64 °F - - ()
Cooling Degree Days 8    
Growing Degree Days 24 (Base 50)    
Moisture  
Dew Point 57 °F    
Average Humidity 60    
Maximum Humidity 82    
Minimum Humidity 32    
Precipitation  
Precipitation 0.00 in - - ()
Sea Level Pressure  
Sea Level Pressure 30.04 in    
Wind  
Wind Speed 1 mph ()    
Max Wind Speed 8 mph    
Max Gust Speed -    
Visibility 6.2 miles    
Events      
Averages and records for this station are not official NWS values.
T = Trace of Precipitation, MM = Missing Value Source: Averaged Metar Reports

Daily Weather History Graph

Daily Weather History Graph

Search for Another Location

Airport or City:

Trip Planner

Search our weather history database for the weather conditions in past years. The results will help you decide how hot, cold, wet, or windy it might be!

Date:

Astronomy

Dec. 09, 2012 Rise Set
Actual Time 6:08 AM +03 4:45 PM +03
Civil Twilight 5:43 AM +03 5:10 PM +03
Nautical Twilight 5:15 AM +03 5:38 PM +03
Astronomical Twilight 4:47 AM +03 6:06 PM +03
Moon 1:35 AM +03 (12/9) 1:19 PM +03 (12/9)
Length of Visible Light 11h 26m
Length of Day
10h 36m
Waning Crescent, 22% of the Moon is Illuminated
Dec 9
Waning Crescent
Dec 13
New
Dec 20
First Quarter
Dec 28
Full
Jan 5
Last Quarter

Hourly Weather History & Observations

Time (+03) Temp. Heat Index Dew Point Humidity Pressure Visibility Wind Dir Wind Speed Gust Speed Precip Events Conditions
12:55 AM 67.6 °F - 61.5 °F 81% 30.04 in 6.2 mi Calm Calm - N/A   Clear
1:55 AM 66.6 °F - 60.6 °F 81% 30.04 in 6.2 mi Calm Calm - N/A   Clear
2:55 AM 64.8 °F - 58.5 °F 80% 30.04 in 6.2 mi Calm Calm - N/A   Clear
3:55 AM 66.0 °F - 60.4 °F 82% 30.03 in 6.2 mi Calm Calm - N/A   Clear
4:55 AM 66.6 °F - 60.6 °F 81% 30.03 in 6.2 mi NNE 4.6 mph - N/A   Clear
5:55 AM 65.8 °F - 60.3 °F 82% 30.05 in 6.2 mi Calm Calm - N/A   Clear
6:55 AM 65.7 °F - 59.2 °F 80% 30.07 in 6.2 mi Calm Calm - N/A   Clear
7:55 AM 69.4 °F - 60.6 °F 73% 30.10 in 6.2 mi Calm Calm - N/A   Clear
8:55 AM 74.5 °F - 61.7 °F 64% 30.12 in 6.2 mi Calm Calm - N/A   Clear
9:55 AM 78.1 °F - 54.5 °F 44% 30.10 in 6.2 mi Calm Calm - N/A   Clear
10:55 AM 81.0 °F 80.4 °F 53.1 °F 38% 30.07 in 6.2 mi Calm Calm - N/A   Clear
11:55 AM 81.9 °F - 51.6 °F 35% 30.04 in 6.2 mi Calm Calm - N/A   Clear
12:55 PM 83.1 °F - 50.5 °F 32% 30.01 in 6.2 mi Calm Calm - N/A   Clear
1:55 PM 83.1 °F - 51.1 °F 33% 30.00 in 6.2 mi North 4.6 mph - N/A   Clear
2:55 PM 83.5 °F - 51.3 °F 33% 30.00 in 6.2 mi Variable 3.5 mph - N/A   Clear
3:55 PM 82.6 °F - 51.3 °F 34% 29.99 in 6.2 mi Calm Calm - N/A   Clear
4:55 PM 79.5 °F - 57.9 °F 47% 29.99 in 6.2 mi ENE 8.1 mph - N/A   Clear
5:55 PM 76.3 °F - 59.9 °F 57% 30.01 in 6.2 mi East 5.8 mph - N/A   Clear
6:55 PM 75.6 °F - 59.0 °F 56% 30.03 in 6.2 mi Calm Calm - N/A   Clear
7:55 PM 74.1 °F - 61.0 °F 63% 30.04 in 6.2 mi Calm Calm - N/A   Clear
8:55 PM 70.7 °F - 58.1 °F 64% 30.04 in 6.2 mi Calm Calm - N/A   Clear
9:55 PM 68.4 °F - 57.2 °F 67% 30.03 in 6.2 mi Calm Calm - N/A   Clear
10:55 PM 68.7 °F - 58.1 °F 69% 30.01 in 6.2 mi Calm Calm - N/A   Clear
11:55 PM 67.3 °F - 57.4 °F 70% 30.00 in 6.2 mi Calm Calm - N/A   Clear